TimeCDT,TemperatureF,Dew PointF,Humidity,Sea Level PressureIn,VisibilityMPH,Wind Direction,Wind SpeedMPH,Gust SpeedMPH,PrecipitationIn,Events,Conditions,WindDirDegrees,DateUTC
12:56 AM,70.0,68.9,96,29.92,10.0,SSW,4.6,-,N/A,,Clear,200,2013-06-24 05:56:00
1:56 AM,68.9,68.9,100,29.92,10.0,SSW,5.8,-,N/A,,Clear,200,2013-06-24 06:56:00
2:56 AM,68.9,68.0,97,29.92,10.0,South,5.8,-,N/A,,Scattered Clouds,190,2013-06-24 07:56:00
3:56 AM,68.0,66.9,96,29.91,10.0,SSW,4.6,-,N/A,,Clear,210,2013-06-24 08:56:00
4:56 AM,65.8,65.8,100,29.92,8.0,SSE,3.5,-,N/A,,Clear,160,2013-06-24 09:56:00
5:56 AM,65.8,65.8,100,29.93,7.0,Calm,Calm,-,N/A,,Clear,0,2013-06-24 10:56:00
6:56 AM,68.9,66.9,93,29.94,10.0,West,3.5,-,N/A,,Clear,260,2013-06-24 11:56:00
7:56 AM,70.9,66.9,87,29.95,10.0,WSW,3.5,-,N/A,,Clear,240,2013-06-24 12:56:00
8:56 AM,73.9,66.9,79,29.96,10.0,South,4.6,-,N/A,,Clear,190,2013-06-24 13:56:00
9:56 AM,75.2,68.0,78,30.00,10.0,South,9.2,-,N/A,,Mostly Cloudy,190,2013-06-24 14:56:00
10:35 AM,73.4,66.2,78,29.99,10.0,SW,9.2,-,N/A,,Overcast,220,2013-06-24 15:35:00
10:56 AM,73.9,66.9,79,29.97,10.0,SSW,6.9,-,N/A,,Overcast,210,2013-06-24 15:56:00
11:56 AM,75.9,68.0,76,29.96,10.0,SSW,10.4,-,N/A,,Mostly Cloudy,210,2013-06-24 16:56:00
12:37 PM,78.8,68.0,69,29.98,10.0,SSW,9.2,-,N/A,,Mostly Cloudy,210,2013-06-24 17:37:00
12:56 PM,80.6,68.0,65,29.98,10.0,SW,8.1,18.4,N/A,,Scattered Clouds,220,2013-06-24 17:56:00
1:56 PM,82.9,65.8,56,29.89,10.0,SSW,9.2,-,N/A,,Clear,200,2013-06-24 18:56:00
2:56 PM,81.0,65.8,60,29.87,10.0,SSW,9.2,-,N/A,,Clear,200,2013-06-24 19:56:00
3:56 PM,79.9,65.8,62,29.89,10.0,WSW,8.1,-,N/A,,Clear,240,2013-06-24 20:56:00
4:56 PM,79.0,64.9,62,29.88,10.0,SSW,9.2,-,N/A,,Clear,200,2013-06-24 21:56:00
5:56 PM,77.0,65.8,68,29.88,10.0,SSW,6.9,-,N/A,,Scattered Clouds,210,2013-06-24 22:56:00
6:56 PM,75.9,66.9,74,29.86,10.0,SSW,5.8,-,N/A,,Partly Cloudy,200,2013-06-24 23:56:00
7:56 PM,73.9,68.0,82,29.84,10.0,Calm,Calm,-,N/A,,Clear,0,2013-06-25 00:56:00
8:56 PM,72.0,68.9,90,29.84,10.0,Calm,Calm,-,N/A,,Partly Cloudy,0,2013-06-25 01:56:00
9:56 PM,72.0,66.9,84,29.86,10.0,SSW,6.9,-,N/A,,Partly Cloudy,210,2013-06-25 02:56:00
10:56 PM,70.9,66.9,87,29.88,10.0,SSW,5.8,-,N/A,,Mostly Cloudy,200,2013-06-25 03:56:00
11:56 PM,68.9,66.9,93,29.88,10.0,SW,3.5,-,N/A,,Clear,220,2013-06-25 04:56:00